GSAT-7

Last updated on Sat Jul 05 2025 00:02:45 GMT+0000 (Coordinated Universal Time)

1 39234U 13044B 25185.15179587 -.00000064 00000+0 00000+0 0 9996 2 39234 0.0277 95.3317 0002470 173.0683 142.6081 1.00272327 41762
UTC large
Height (km)
Speed (km/s)
/
Latitude / Longitude
Inclination (degrees)
Orbital Period (minutes)
Azimuth
Elevation
Range (km)
Doppler Factor

Next 0 passes for location: London (51.5072 / 0.1276)

Sorry there are no passes over London.